Home   Weather   Macau   Past weeks

Flag for Macau Past Weather in Macau, Macau — Yesterday and Last 2 Weeks

Now
73 °F

Light rain. Scattered clouds.


Feels Like: 75 °F
Forecast: 74 / 83 °F
Wind: 12 mph from Northwest

Location: Taipa

Current Time: Sep 30, 2016 at 9:37:25 AM

Latest Report: Sep 30, 2016 at 9:00 AM


Visibility: N/A

Pressure: 29.77 "Hg

Humidity: 74%

Dew Point: 64 °F

Location of MacauLocation

Past Weather in Macau — Graph

°F

Macau Temperature Yesterday

Maximum temperature yesterday: 86 °F (at 12:00 AM)
Minimum temperature yesterday: 73 °F (at 6:30 PM)
Average temperature yesterday: 80 °F

High & Low Weather Summary for the Past Weeks

 TemperatureHumidityPressure
High97 °F (Sep 27, 1:30 PM)94% (Sep 20, 8:00 AM)29.98 "Hg (Sep 20, 8:00 AM)
Low72 °F (Sep 30, 4:30 AM)42% (Sep 27, 2:00 PM)29.47 "Hg (Sep 28, 2:00 PM)
Average84 °F72%29.75 "Hg
* Reported Sep 15 8:00 AM — Sep 30 8:30 AM, Macau, Weather by CustomWeather, © 2016

Note: Actual official high and low records may vary slightly from our data, if they occured in-between our weather recording intervals... More about our weather records

Advertising

Macau Weather History for the Previous 24 Hours

Scroll right to see more
 ConditionsComfort  
Time TempWeatherWind HumidityBarometerVisibility
8:30 AM
Fri, Sep 30
73 °FScattered clouds.13 mph74%29.77 "HgN/A
8:00 AM73 °FPassing clouds.13 mph74%29.77 "HgN/A
7:30 AM73 °FPassing clouds.14 mph74%29.74 "HgN/A
7:00 AM72 °FScattered clouds.12 mph78%29.74 "HgN/A
6:30 AM72 °FScattered clouds.12 mph78%29.74 "HgN/A
6:00 AM73 °FPassing clouds.10 mph74%29.74 "HgN/A
5:30 AM73 °FPassing clouds.12 mph74%29.74 "HgN/A
5:00 AM73 °FPassing clouds.12 mph74%29.71 "HgN/A
4:30 AM72 °FPassing clouds.13 mph78%29.71 "HgN/A
4:00 AM73 °FPassing clouds.14 mph74%29.71 "HgN/A
3:30 AM73 °FPassing clouds.13 mph74%29.71 "HgN/A
3:00 AM73 °FPassing clouds.12 mph74%29.71 "HgN/A
2:30 AM73 °FPassing clouds.12 mph74%29.71 "HgN/A
2:00 AM73 °FPassing clouds.12 mph74%29.74 "HgN/A
1:30 AM73 °FPassing clouds.12 mph74%29.74 "HgN/A
1:00 AM73 °FPassing clouds.12 mph74%29.74 "HgN/A
12:30 AM73 °FPassing clouds.14 mph74%29.74 "HgN/A
12:00 AM73 °FPassing clouds.14 mph74%29.74 "HgN/A
11:00 PM
Thu, Sep 29
73 °FPassing clouds.13 mph74%29.74 "HgN/A
10:30 PM73 °FPassing clouds.15 mph74%29.74 "HgN/A
10:00 PM73 °FPassing clouds.14 mph74%29.77 "HgN/A
9:30 PM73 °FPassing clouds.14 mph74%29.74 "HgN/A
9:00 PM73 °FPassing clouds.15 mph74%29.74 "HgN/A
8:30 PM73 °FPassing clouds.14 mph74%29.74 "HgN/A
8:00 PM73 °FLight rain. Passing clouds.15 mph78%29.71 "HgN/A
7:30 PM73 °FLight rain. Passing clouds.14 mph78%29.71 "HgN/A
7:00 PM73 °FLight rain. Passing clouds.15 mph78%29.68 "HgN/A
6:30 PM73 °FLight rain. Passing clouds.15 mph78%29.68 "HgN/A
6:00 PM75 °FLight rain. Scattered clouds.15 mph69%29.68 "HgN/A
5:30 PM75 °FScattered clouds.13 mph74%29.65 "HgN/A
5:00 PM77 °FLight rain. Scattered clouds.15 mph69%29.65 "HgN/A
4:30 PM77 °FLight rain. Scattered clouds.15 mph69%29.65 "HgN/A
4:00 PM79 °FPassing clouds.16 mph65%29.62 "HgN/A
3:30 PM81 °FPassing clouds.16 mph58%29.65 "HgN/A
3:00 PM81 °FPassing clouds.16 mph66%29.65 "HgN/A
2:30 PM81 °FPassing clouds.16 mph66%29.65 "HgN/A
2:00 PM81 °FPassing clouds.17 mph66%29.65 "HgN/A
1:30 PM81 °FPassing clouds.15 mph62%29.65 "HgN/A
1:00 PM81 °FPassing clouds.14 mph62%29.65 "HgN/A
12:30 PM81 °FPassing clouds.14 mph62%29.65 "HgN/A
12:00 PM82 °FPassing clouds.13 mph58%29.68 "HgN/A
11:30 AM82 °FPassing clouds.14 mph58%29.68 "HgN/A
11:00 AM81 °FLight rain. Passing clouds.16 mph62%29.68 "HgN/A
10:30 AM81 °FPassing clouds.15 mph62%29.68 "HgN/A
10:00 AM81 °FPassing clouds.14 mph62%29.65 "HgN/A
9:30 AM81 °FPassing clouds.15 mph62%29.65 "HgN/A
9:00 AM81 °FPassing clouds.14 mph66%29.65 "HgN/A
Weather by CustomWeather, © 2016

See weather overviewHow to use our weather pages